Time,TemperatureF,DewpointF,PressureIn,WindDirection,WindDirectionDegrees,WindSpeedMPH,WindSpeedGustMPH,Humidity,HourlyPrecipIn,Conditions,Clouds,dailyrainin,SoftwareType,DateUTC
2013-03-27 00:00:00,35.1,27.3,30.17,WSW,248,2.0,-999.0,73,0.00,,,0.00,Wunderground v.1.15,2013-03-27 06:00:00,
2013-03-27 00:05:00,35.1,27.3,30.17,WSW,248,2.0,-999.0,73,0.00,,,0.00,Wunderground v.1.15,2013-03-27 06:05:00,
2013-03-27 00:10:00,34.9,27.5,30.17,South,180,3.0,-999.0,74,0.00,,,0.00,Wunderground v.1.15,2013-03-27 06:10:00,
2013-03-27 00:15:00,35.0,27.5,30.17,SSW,203,3.0,-999.0,74,0.00,,,0.00,Wunderground v.1.15,2013-03-27 06:15:00,
2013-03-27 00:20:00,34.5,27.7,30.17,WSW,248,3.0,-999.0,76,0.00,,,0.00,Wunderground v.1.15,2013-03-27 06:20:00,
2013-03-27 00:25:00,34.0,27.9,30.17,SW,225,3.0,-999.0,78,0.00,,,0.00,Wunderground v.1.15,2013-03-27 06:25:00,
2013-03-27 00:30:00,33.8,27.7,30.17,SW,225,4.0,-999.0,78,0.00,,,0.00,Wunderground v.1.15,2013-03-27 06:30:00,
2013-03-27 00:35:00,33.3,27.8,30.17,WSW,248,4.0,-999.0,80,0.00,,,0.00,Wunderground v.1.15,2013-03-27 06:35:00,
2013-03-27 00:40:00,33.2,28.3,30.17,WSW,248,3.0,-999.0,82,0.00,,,0.00,Wunderground v.1.15,2013-03-27 06:40:00,
2013-03-27 00:45:00,33.8,28.6,30.16,SW,225,3.0,-999.0,81,0.00,,,0.00,Wunderground v.1.15,2013-03-27 06:45:00,
2013-03-27 00:50:00,33.9,29.0,30.16,SW,225,4.0,-999.0,82,0.00,,,0.00,Wunderground v.1.15,2013-03-27 06:50:00,
2013-03-27 00:55:00,34.4,29.2,30.15,WSW,248,5.0,-999.0,81,0.00,,,0.00,Wunderground v.1.15,2013-03-27 06:55:00,
2013-03-27 01:00:00,35.1,29.6,30.15,WSW,248,6.0,-999.0,80,0.00,,,0.00,Wunderground v.1.15,2013-03-27 07:00:00,
2013-03-27 01:05:00,35.2,30.0,30.15,WSW,248,4.0,-999.0,81,0.00,,,0.00,Wunderground v.1.15,2013-03-27 07:05:00,
2013-03-27 01:10:00,35.2,29.6,30.15,WSW,248,3.0,-999.0,80,0.00,,,0.00,Wunderground v.1.15,2013-03-27 07:10:00,
2013-03-27 01:15:00,35.0,29.5,30.15,WSW,248,5.0,-999.0,80,0.00,,,0.00,Wunderground v.1.15,2013-03-27 07:15:00,
2013-03-27 01:20:00,34.9,29.4,30.15,WSW,248,6.0,-999.0,80,0.00,,,0.00,Wunderground v.1.15,2013-03-27 07:20:00,
2013-03-27 01:25:00,34.8,29.0,30.15,WSW,248,4.0,-999.0,79,0.00,,,0.00,Wunderground v.1.15,2013-03-27 07:25:00,
2013-03-27 01:30:00,35.0,28.5,30.15,WSW,248,4.0,-999.0,77,0.00,,,0.00,Wunderground v.1.15,2013-03-27 07:30:00,
2013-03-27 01:35:00,35.2,28.7,30.14,WSW,248,4.0,-999.0,77,0.00,,,0.00,Wunderground v.1.15,2013-03-27 07:35:00,
2013-03-27 01:40:00,34.9,28.4,30.14,WSW,248,5.0,-999.0,77,0.00,,,0.00,Wunderground v.1.15,2013-03-27 07:40:00,
2013-03-27 01:45:00,34.7,27.9,30.14,SW,225,4.0,-999.0,76,0.00,,,0.00,Wunderground v.1.15,2013-03-27 07:45:00,
2013-03-27 01:50:00,34.6,28.1,30.14,West,270,1.0,-999.0,77,0.00,,,0.00,Wunderground v.1.15,2013-03-27 07:50:00,
2013-03-27 01:55:00,34.1,27.6,30.14,SW,225,2.0,-999.0,77,0.00,,,0.00,Wunderground v.1.15,2013-03-27 07:55:00,
2013-03-27 02:00:00,33.6,27.5,30.13,WSW,248,1.0,-999.0,78,0.00,,,0.00,Wunderground v.1.15,2013-03-27 08:00:00,
2013-03-27 02:05:00,33.3,27.5,30.14,SE,135,1.0,-999.0,79,0.00,,,0.00,Wunderground v.1.15,2013-03-27 08:05:00,
2013-03-27 02:10:00,33.3,27.2,30.14,South,180,2.0,-999.0,78,0.00,,,0.00,Wunderground v.1.15,2013-03-27 08:10:00,
2013-03-27 02:15:00,33.4,27.3,30.13,WSW,248,2.0,-999.0,78,0.00,,,0.00,Wunderground v.1.15,2013-03-27 08:15:00,
2013-03-27 02:20:00,33.3,27.5,30.14,West,270,3.0,-999.0,79,0.00,,,0.00,Wunderground v.1.15,2013-03-27 08:20:00,
2013-03-27 02:25:00,33.1,27.3,30.14,WSW,248,1.0,-999.0,79,0.00,,,0.00,Wunderground v.1.15,2013-03-27 08:25:00,
2013-03-27 02:30:00,33.1,27.3,30.14,WSW,248,1.0,-999.0,79,0.00,,,0.00,Wunderground v.1.15,2013-03-27 08:30:00,
2013-03-27 02:35:00,33.2,27.1,30.13,WSW,248,2.0,-999.0,78,0.00,,,0.00,Wunderground v.1.15,2013-03-27 08:35:00,
2013-03-27 02:40:00,33.1,27.0,30.14,WSW,248,3.0,-999.0,78,0.00,,,0.00,Wunderground v.1.15,2013-03-27 08:40:00,
2013-03-27 02:45:00,32.7,26.6,30.14,WSW,248,4.0,-999.0,78,0.00,,,0.00,Wunderground v.1.15,2013-03-27 08:45:00,
2013-03-27 02:50:00,32.7,26.6,30.14,SW,225,2.0,-999.0,78,0.00,,,0.00,Wunderground v.1.15,2013-03-27 08:50:00,
2013-03-27 02:55:00,32.6,26.8,30.14,WSW,248,3.0,-999.0,79,0.00,,,0.00,Wunderground v.1.15,2013-03-27 08:55:00,
2013-03-27 03:00:00,32.5,26.7,30.14,WSW,248,2.0,-999.0,79,0.00,,,0.00,Wunderground v.1.15,2013-03-27 09:00:00,
2013-03-27 03:05:00,32.5,26.7,30.14,WSW,248,3.0,-999.0,79,0.00,,,0.00,Wunderground v.1.15,2013-03-27 09:05:00,
2013-03-27 03:10:00,32.2,26.7,30.15,West,270,2.0,-999.0,80,0.00,,,0.00,Wunderground v.1.15,2013-03-27 09:10:00,
2013-03-27 03:15:00,32.3,26.8,30.14,WSW,248,1.0,-999.0,80,0.00,,,0.00,Wunderground v.1.15,2013-03-27 09:15:00,
2013-03-27 03:20:00,32.5,27.0,30.14,SSE,158,1.0,-999.0,80,0.00,,,0.00,Wunderground v.1.15,2013-03-27 09:20:00,
2013-03-27 03:25:00,32.7,26.9,30.13,WSW,248,2.0,-999.0,79,0.00,,,0.00,Wunderground v.1.15,2013-03-27 09:25:00,
2013-03-27 03:30:00,33.0,26.9,30.13,WSW,248,3.0,-999.0,78,0.00,,,0.00,Wunderground v.1.15,2013-03-27 09:30:00,
2013-03-27 03:35:00,33.2,27.1,30.12,WSW,248,1.0,-999.0,78,0.00,,,0.00,Wunderground v.1.15,2013-03-27 09:35:00,
2013-03-27 03:40:00,33.1,27.3,30.12,WSW,248,1.0,-999.0,79,0.00,,,0.00,Wunderground v.1.15,2013-03-27 09:40:00,
2013-03-27 03:45:00,33.0,27.2,30.12,WSW,248,3.0,-999.0,79,0.00,,,0.00,Wunderground v.1.15,2013-03-27 09:45:00,
2013-03-27 03:50:00,32.7,26.9,30.12,SSW,203,3.0,-999.0,79,0.00,,,0.00,Wunderground v.1.15,2013-03-27 09:50:00,
2013-03-27 03:55:00,33.0,27.2,30.12,South,180,3.0,-999.0,79,0.00,,,0.00,Wunderground v.1.15,2013-03-27 09:55:00,
2013-03-27 04:00:00,33.1,27.0,30.12,SW,225,3.0,-999.0,78,0.00,,,0.00,Wunderground v.1.15,2013-03-27 10:00:00,
2013-03-27 04:05:00,33.0,26.9,30.13,WSW,248,4.0,-999.0,78,0.00,,,0.00,Wunderground v.1.15,2013-03-27 10:05:00,
2013-03-27 04:10:00,32.5,27.0,30.13,WSW,248,3.0,-999.0,80,0.00,,,0.00,Wunderground v.1.15,2013-03-27 10:10:00,
2013-03-27 04:15:00,32.8,27.0,30.13,SW,225,3.0,-999.0,79,0.00,,,0.00,Wunderground v.1.15,2013-03-27 10:15:00,
2013-03-27 04:20:00,32.7,27.2,30.13,WSW,248,3.0,-999.0,80,0.00,,,0.00,Wunderground v.1.15,2013-03-27 10:20:00,
2013-03-27 04:25:00,32.6,27.4,30.13,SSW,203,2.0,-999.0,81,0.00,,,0.00,Wunderground v.1.15,2013-03-27 10:25:00,
2013-03-27 04:30:00,32.8,27.6,30.13,SW,225,2.0,-999.0,81,0.00,,,0.00,Wunderground v.1.15,2013-03-27 10:30:00,
2013-03-27 04:35:00,33.0,27.8,30.14,WSW,248,4.0,-999.0,81,0.00,,,0.00,Wunderground v.1.15,2013-03-27 10:35:00,
2013-03-27 04:40:00,33.1,28.2,30.14,WSW,248,1.0,-999.0,82,0.00,,,0.00,Wunderground v.1.15,2013-03-27 10:40:00,
2013-03-27 04:45:00,33.4,28.2,30.13,SSW,203,3.0,-999.0,81,0.00,,,0.00,Wunderground v.1.15,2013-03-27 10:45:00,
2013-03-27 04:50:00,33.8,28.3,30.13,SW,225,5.0,-999.0,80,0.00,,,0.00,Wunderground v.1.15,2013-03-27 10:50:00,
2013-03-27 04:55:00,34.2,28.4,30.13,WSW,248,2.0,-999.0,79,0.00,,,0.00,Wunderground v.1.15,2013-03-27 10:55:00,
2013-03-27 05:00:00,34.4,28.6,30.13,WSW,248,0.0,-999.0,79,0.00,,,0.00,Wunderground v.1.15,2013-03-27 11:00:00,
2013-03-27 05:05:00,34.2,28.7,30.13,WSW,248,0.0,-999.0,80,0.00,,,0.00,Wunderground v.1.15,2013-03-27 11:05:00,
2013-03-27 05:10:00,34.0,28.5,30.14,WSW,248,1.0,-999.0,80,0.00,,,0.00,Wunderground v.1.15,2013-03-27 11:10:00,
2013-03-27 05:15:00,33.9,28.4,30.13,WSW,248,1.0,-999.0,80,0.00,,,0.00,Wunderground v.1.15,2013-03-27 11:15:00,
2013-03-27 05:20:00,33.6,28.1,30.13,WSW,248,2.0,-999.0,80,0.00,,,0.00,Wunderground v.1.15,2013-03-27 11:20:00,
2013-03-27 05:25:00,33.3,28.1,30.13,SSW,203,2.0,-999.0,81,0.00,,,0.00,Wunderground v.1.15,2013-03-27 11:25:00,
2013-03-27 05:30:00,33.3,27.8,30.13,WSW,248,3.0,-999.0,80,0.00,,,0.00,Wunderground v.1.15,2013-03-27 11:30:00,
2013-03-27 05:35:00,32.9,28.0,30.13,WSW,248,6.0,-999.0,82,0.00,,,0.00,Wunderground v.1.15,2013-03-27 11:35:00,
2013-03-27 05:40:00,32.6,28.0,30.13,WSW,248,4.0,-999.0,83,0.00,,,0.00,Wunderground v.1.15,2013-03-27 11:40:00,
2013-03-27 05:45:00,32.7,28.1,30.13,SW,225,3.0,-999.0,83,0.00,,,0.00,Wunderground v.1.15,2013-03-27 11:45:00,
2013-03-27 05:50:00,32.9,28.0,30.13,WSW,248,2.0,-999.0,82,0.00,,,0.00,Wunderground v.1.15,2013-03-27 11:50:00,
2013-03-27 05:55:00,33.1,28.2,30.13,WSW,248,1.0,-999.0,82,0.00,,,0.00,Wunderground v.1.15,2013-03-27 11:55:00,
2013-03-27 06:00:00,33.1,28.2,30.14,West,270,2.0,-999.0,82,0.00,,,0.00,Wunderground v.1.15,2013-03-27 12:00:00,
2013-03-27 06:05:00,33.0,28.1,30.14,West,270,2.0,-999.0,82,0.00,,,0.00,Wunderground v.1.15,2013-03-27 12:05:00,
2013-03-27 06:10:00,32.9,28.3,30.13,WSW,248,2.0,-999.0,83,0.00,,,0.00,Wunderground v.1.15,2013-03-27 12:10:00,
2013-03-27 06:15:00,32.9,28.3,30.14,WSW,248,3.0,-999.0,83,0.00,,,0.00,Wunderground v.1.15,2013-03-27 12:15:00,
2013-03-27 06:20:00,32.9,28.3,30.14,WSW,248,4.0,-999.0,83,0.00,,,0.00,Wunderground v.1.15,2013-03-27 12:20:00,
2013-03-27 06:25:00,32.8,28.2,30.14,SSW,203,3.0,-999.0,83,0.00,,,0.00,Wunderground v.1.15,2013-03-27 12:25:00,
2013-03-27 06:30:00,33.0,28.1,30.14,WSW,248,3.0,-999.0,82,0.00,,,0.00,Wunderground v.1.15,2013-03-27 12:30:00,
2013-03-27 06:35:00,33.1,27.9,30.14,WSW,248,3.0,-999.0,81,0.00,,,0.00,Wunderground v.1.15,2013-03-27 12:35:00,
2013-03-27 06:40:00,32.8,27.9,30.14,SW,225,3.0,-999.0,82,0.00,,,0.00,Wunderground v.1.15,2013-03-27 12:40:00,
2013-03-27 06:45:00,32.7,27.8,30.14,WSW,248,3.0,-999.0,82,0.00,,,0.00,Wunderground v.1.15,2013-03-27 12:45:00,
2013-03-27 06:50:00,32.2,27.6,30.14,SW,225,2.0,-999.0,83,0.00,,,0.00,Wunderground v.1.15,2013-03-27 12:50:00,
2013-03-27 06:55:00,32.3,27.7,30.15,SW,225,2.0,-999.0,83,0.00,,,0.00,Wunderground v.1.15,2013-03-27 12:55:00,
2013-03-27 07:00:00,32.2,27.3,30.15,WSW,248,4.0,-999.0,82,0.00,,,0.00,Wunderground v.1.15,2013-03-27 13:00:00,
2013-03-27 07:05:00,31.6,27.3,30.15,WSW,248,4.0,-999.0,84,0.00,,,0.00,Wunderground v.1.15,2013-03-27 13:05:00,
2013-03-27 07:10:00,31.6,27.3,30.15,WSW,248,2.0,-999.0,84,0.00,,,0.00,Wunderground v.1.15,2013-03-27 13:10:00,
2013-03-27 07:15:00,31.5,27.5,30.15,WSW,248,2.0,-999.0,85,0.00,,,0.00,Wunderground v.1.15,2013-03-27 13:15:00,
2013-03-27 07:20:00,31.4,27.1,30.15,WSW,248,4.0,-999.0,84,0.00,,,0.00,Wunderground v.1.15,2013-03-27 13:20:00,
2013-03-27 07:25:00,31.3,27.6,30.15,South,180,3.0,-999.0,86,0.00,,,0.00,Wunderground v.1.15,2013-03-27 13:25:00,
2013-03-27 07:30:00,31.5,27.5,30.16,WSW,248,3.0,-999.0,85,0.00,,,0.00,Wunderground v.1.15,2013-03-27 13:30:00,
2013-03-27 07:35:00,31.4,27.4,30.16,SW,225,3.0,-999.0,85,0.00,,,0.00,Wunderground v.1.15,2013-03-27 13:35:00,
2013-03-27 07:40:00,31.5,27.8,30.16,SW,225,2.0,-999.0,86,0.00,,,0.00,Wunderground v.1.15,2013-03-27 13:40:00,
2013-03-27 07:45:00,31.7,27.4,30.16,WSW,248,2.0,-999.0,84,0.00,,,0.00,Wunderground v.1.15,2013-03-27 13:45:00,
2013-03-27 07:50:00,31.6,27.3,30.16,SW,225,3.0,-999.0,84,0.00,,,0.00,Wunderground v.1.15,2013-03-27 13:50:00,
2013-03-27 07:55:00,31.4,27.1,30.16,WSW,248,3.0,-999.0,84,0.00,,,0.00,Wunderground v.1.15,2013-03-27 13:55:00,
2013-03-27 08:00:00,31.7,27.7,30.16,SSW,203,2.0,-999.0,85,0.00,,,0.00,Wunderground v.1.15,2013-03-27 14:00:00,
2013-03-27 08:05:00,32.5,28.5,30.16,South,180,2.0,-999.0,85,0.00,,,0.00,Wunderground v.1.15,2013-03-27 14:05:00,
2013-03-27 08:10:00,33.7,29.1,30.16,SSE,158,2.0,-999.0,83,0.00,,,0.00,Wunderground v.1.15,2013-03-27 14:10:00,
2013-03-27 08:15:00,34.7,28.5,30.16,WSW,248,2.0,-999.0,78,0.00,,,0.00,Wunderground v.1.15,2013-03-27 14:15:00,
2013-03-27 08:20:00,35.1,29.2,30.16,SW,225,1.0,-999.0,79,0.00,,,0.00,Wunderground v.1.15,2013-03-27 14:20:00,
2013-03-27 08:25:00,36.1,29.6,30.16,SW,225,0.0,-999.0,77,0.00,,,0.00,Wunderground v.1.15,2013-03-27 14:25:00,
2013-03-27 08:30:00,37.2,30.0,30.16,ENE,68,2.0,-999.0,75,0.00,,,0.00,Wunderground v.1.15,2013-03-27 14:30:00,
2013-03-27 08:35:00,37.3,29.4,30.16,NE,45,1.0,-999.0,73,0.00,,,0.00,Wunderground v.1.15,2013-03-27 14:35:00,
2013-03-27 08:40:00,37.6,29.7,30.16,East,90,1.0,-999.0,73,0.00,,,0.00,Wunderground v.1.15,2013-03-27 14:40:00,
2013-03-27 08:45:00,38.2,30.0,30.16,SE,135,1.0,-999.0,72,0.00,,,0.00,Wunderground v.1.15,2013-03-27 14:45:00,
2013-03-27 08:50:00,39.0,30.4,30.15,ESE,113,1.0,-999.0,71,0.00,,,0.00,Wunderground v.1.15,2013-03-27 14:50:00,
2013-03-27 08:55:00,40.0,30.3,30.16,SW,225,1.0,-999.0,68,0.00,,,0.00,Wunderground v.1.15,2013-03-27 14:55:00,
2013-03-27 09:00:00,40.5,30.4,30.16,ESE,113,2.0,-999.0,67,0.00,,,0.00,Wunderground v.1.15,2013-03-27 15:00:00,
2013-03-27 09:05:00,40.9,30.0,30.16,ESE,113,2.0,-999.0,65,0.00,,,0.00,Wunderground v.1.15,2013-03-27 15:05:00,
2013-03-27 09:10:00,41.1,30.6,30.16,East,90,2.0,-999.0,66,0.00,,,0.00,Wunderground v.1.15,2013-03-27 15:10:00,
2013-03-27 09:15:00,41.1,31.0,30.16,East,90,3.0,-999.0,67,0.00,,,0.00,Wunderground v.1.15,2013-03-27 15:15:00,
2013-03-27 09:20:00,40.8,31.8,30.16,East,90,4.0,-999.0,70,0.00,,,0.00,Wunderground v.1.15,2013-03-27 15:20:00,
2013-03-27 09:25:00,40.7,32.0,30.16,ESE,113,2.0,-999.0,71,0.00,,,0.00,Wunderground v.1.15,2013-03-27 15:25:00,
2013-03-27 09:30:00,41.0,32.3,30.16,East,90,3.0,-999.0,71,0.00,,,0.00,Wunderground v.1.15,2013-03-27 15:30:00,
2013-03-27 09:35:00,41.0,32.3,30.15,East,90,3.0,-999.0,71,0.00,,,0.00,Wunderground v.1.15,2013-03-27 15:35:00,
2013-03-27 09:40:00,41.1,33.1,30.15,East,90,3.0,-999.0,73,0.00,,,0.00,Wunderground v.1.15,2013-03-27 15:40:00,
2013-03-27 09:45:00,41.2,33.5,30.15,ENE,68,4.0,-999.0,74,0.00,,,0.00,Wunderground v.1.15,2013-03-27 15:45:00,
2013-03-27 09:50:00,40.9,33.6,30.15,East,90,5.0,-999.0,75,0.00,,,0.00,Wunderground v.1.15,2013-03-27 15:50:00,
2013-03-27 09:55:00,40.8,33.2,30.15,East,90,3.0,-999.0,74,0.00,,,0.00,Wunderground v.1.15,2013-03-27 15:55:00,
2013-03-27 10:00:00,40.9,32.9,30.15,East,90,3.0,-999.0,73,0.00,,,0.00,Wunderground v.1.15,2013-03-27 16:00:00,
2013-03-27 10:05:00,40.9,33.2,30.15,ENE,68,3.0,-999.0,74,0.00,,,0.00,Wunderground v.1.15,2013-03-27 16:05:00,
2013-03-27 10:10:00,41.3,33.6,30.15,East,90,3.0,-999.0,74,0.00,,,0.00,Wunderground v.1.15,2013-03-27 16:10:00,
2013-03-27 10:15:00,41.8,33.4,30.15,East,90,2.0,-999.0,72,0.00,,,0.00,Wunderground v.1.15,2013-03-27 16:15:00,
2013-03-27 10:20:00,42.0,32.9,30.15,ENE,68,3.0,-999.0,70,0.00,,,0.00,Wunderground v.1.15,2013-03-27 16:20:00,
2013-03-27 10:25:00,42.3,32.8,30.15,East,90,4.0,-999.0,69,0.00,,,0.00,Wunderground v.1.15,2013-03-27 16:25:00,
2013-03-27 10:30:00,42.3,32.8,30.15,East,90,4.0,-999.0,69,0.00,,,0.00,Wunderground v.1.15,2013-03-27 16:30:00,
2013-03-27 10:35:00,42.7,33.6,30.15,SSW,203,3.0,-999.0,70,0.00,,,0.00,Wunderground v.1.15,2013-03-27 16:35:00,
2013-03-27 10:40:00,43.1,33.3,30.15,SE,135,3.0,-999.0,68,0.00,,,0.00,Wunderground v.1.15,2013-03-27 16:40:00,
2013-03-27 10:45:00,43.2,34.1,30.15,SE,135,4.0,-999.0,70,0.00,,,0.00,Wunderground v.1.15,2013-03-27 16:45:00,
2013-03-27 10:50:00,43.7,34.6,30.15,SE,135,3.0,-999.0,70,0.00,,,0.00,Wunderground v.1.15,2013-03-27 16:50:00,
2013-03-27 10:55:00,44.1,33.8,30.15,SW,225,5.0,-999.0,67,0.00,,,0.00,Wunderground v.1.15,2013-03-27 16:55:00,
2013-03-27 11:00:00,44.0,33.7,30.14,SW,225,4.0,-999.0,67,0.00,,,0.00,Wunderground v.1.15,2013-03-27 17:00:00,
2013-03-27 11:05:00,44.0,33.0,30.15,SW,225,4.0,-999.0,65,0.00,,,0.00,Wunderground v.1.15,2013-03-27 17:05:00,
2013-03-27 11:10:00,44.3,33.3,30.14,SW,225,3.0,-999.0,65,0.00,,,0.00,Wunderground v.1.15,2013-03-27 17:10:00,
2013-03-27 11:15:00,44.7,33.6,30.14,SW,225,3.0,-999.0,65,0.00,,,0.00,Wunderground v.1.15,2013-03-27 17:15:00,
2013-03-27 11:20:00,45.2,32.1,30.14,SW,225,3.0,-999.0,60,0.00,,,0.00,Wunderground v.1.15,2013-03-27 17:20:00,
2013-03-27 11:25:00,45.8,32.7,30.14,SSE,158,3.0,-999.0,60,0.00,,,0.00,Wunderground v.1.15,2013-03-27 17:25:00,
2013-03-27 11:30:00,46.4,32.8,30.14,SSW,203,3.0,-999.0,59,0.00,,,0.00,Wunderground v.1.15,2013-03-27 17:30:00,
2013-03-27 11:35:00,46.5,32.9,30.14,SSW,203,3.0,-999.0,59,0.00,,,0.00,Wunderground v.1.15,2013-03-27 17:35:00,
2013-03-27 11:40:00,46.6,30.4,30.14,SSE,158,4.0,-999.0,53,0.00,,,0.00,Wunderground v.1.15,2013-03-27 17:40:00,
2013-03-27 11:45:00,46.9,31.1,30.14,SE,135,3.0,-999.0,54,0.00,,,0.00,Wunderground v.1.15,2013-03-27 17:45:00,
2013-03-27 11:50:00,47.1,31.3,30.14,SSE,158,3.0,-999.0,54,0.00,,,0.00,Wunderground v.1.15,2013-03-27 17:50:00,
2013-03-27 11:55:00,47.2,31.8,30.14,SE,135,4.0,-999.0,55,0.00,,,0.00,Wunderground v.1.15,2013-03-27 17:55:00,
2013-03-27 11:59:00,47.4,30.6,30.14,South,174,4.0,4.0,52,0.00,,,0.00,Wunderground v.1.15,2013-03-27 17:59:00,
2013-03-27 12:06:00,47.7,32.3,30.13,South,180,3.0,4.0,55,0.00,,,0.00,Wunderground v.1.15,2013-03-27 18:06:00,
2013-03-27 12:13:00,48.3,33.8,30.13,SE,142,2.0,4.0,57,0.00,,,0.00,Wunderground v.1.15,2013-03-27 18:13:00,
2013-03-27 12:18:00,48.6,32.2,30.13,East,97,3.0,10.0,53,0.00,,,0.00,Wunderground v.1.15,2013-03-27 18:18:00,
2013-03-27 12:23:00,48.2,28.9,30.13,South,177,4.0,8.0,47,0.00,,,0.00,Wunderground v.1.15,2013-03-27 18:23:00,
2013-03-27 12:28:00,48.3,31.9,30.13,SSW,210,6.0,8.0,53,0.00,,,0.00,Wunderground v.1.15,2013-03-27 18:28:00,
2013-03-27 12:33:00,48.2,31.9,30.12,SSW,212,5.0,8.0,53,0.00,,,0.00,Wunderground v.1.15,2013-03-27 18:33:00,
2013-03-27 12:38:00,48.5,32.1,30.12,SSE,156,4.0,8.0,53,0.00,,,0.00,Wunderground v.1.15,2013-03-27 18:38:00,
2013-03-27 12:43:00,48.8,31.9,30.12,ESE,115,4.0,7.0,52,0.00,,,0.00,Wunderground v.1.15,2013-03-27 18:43:00,
2013-03-27 12:48:00,48.8,32.9,30.12,SE,130,1.0,7.0,54,0.00,,,0.00,Wunderground v.1.15,2013-03-27 18:48:00,
2013-03-27 12:53:00,48.6,33.1,30.12,ESE,117,4.0,7.0,55,0.00,,,0.00,Wunderground v.1.15,2013-03-27 18:53:00,
2013-03-27 12:58:00,48.3,32.9,30.12,SE,145,4.0,11.0,55,0.00,,,0.00,Wunderground v.1.15,2013-03-27 18:58:00,
2013-03-27 13:03:00,48.4,33.9,30.12,ESE,117,4.0,6.0,57,0.00,,,0.00,Wunderground v.1.15,2013-03-27 19:03:00,
2013-03-27 13:08:00,48.8,32.9,30.12,SSW,202,3.0,8.0,54,0.00,,,0.00,Wunderground v.1.15,2013-03-27 19:08:00,
2013-03-27 13:14:00,49.1,34.5,30.12,SSE,166,6.0,6.0,57,0.00,,,0.00,Wunderground v.1.15,2013-03-27 19:14:00,
2013-03-27 13:19:00,48.9,34.3,30.12,SSE,159,2.0,8.0,57,0.00,,,0.00,Wunderground v.1.15,2013-03-27 19:19:00,
2013-03-27 13:24:00,49.1,34.9,30.12,SW,215,4.0,5.0,58,0.00,,,0.00,Wunderground v.1.15,2013-03-27 19:24:00,
2013-03-27 13:29:00,49.1,35.4,30.11,ESE,102,4.0,6.0,59,0.00,,,0.00,Wunderground v.1.15,2013-03-27 19:29:00,
2013-03-27 13:34:00,49.4,35.2,30.11,South,186,4.0,7.0,58,0.00,,,0.00,Wunderground v.1.15,2013-03-27 19:34:00,
2013-03-27 13:39:00,49.3,34.7,30.11,SSE,150,3.0,7.0,57,0.00,,,0.00,Wunderground v.1.15,2013-03-27 19:39:00,
2013-03-27 13:45:00,49.5,35.8,30.11,SSW,207,4.0,8.0,59,0.00,,,0.00,Wunderground v.1.15,2013-03-27 19:45:00,
2013-03-27 13:51:00,49.7,34.6,30.11,WSW,250,3.0,5.0,56,0.00,,,0.00,Wunderground v.1.15,2013-03-27 19:51:00,
2013-03-27 13:56:00,49.3,35.1,30.10,SE,124,2.0,8.0,58,0.00,,,0.00,Wunderground v.1.15,2013-03-27 19:56:00,
2013-03-27 14:01:00,49.1,35.4,30.10,SSW,198,4.0,4.0,59,0.00,,,0.00,Wunderground v.1.15,2013-03-27 20:01:00,
2013-03-27 14:06:00,49.5,34.4,30.10,SE,128,4.0,5.0,56,0.00,,,0.00,Wunderground v.1.15,2013-03-27 20:06:00,
2013-03-27 14:11:00,49.2,34.2,30.10,ESE,117,2.0,7.0,56,0.00,,,0.00,Wunderground v.1.15,2013-03-27 20:11:00,
2013-03-27 14:16:00,49.6,34.5,30.09,SE,127,3.0,7.0,56,0.00,,,0.00,Wunderground v.1.15,2013-03-27 20:16:00,
2013-03-27 14:21:00,49.5,34.4,30.10,ESE,106,4.0,5.0,56,0.00,,,0.00,Wunderground v.1.15,2013-03-27 20:21:00,
2013-03-27 14:27:00,49.7,33.7,30.09,ESE,109,4.0,7.0,54,0.00,,,0.00,Wunderground v.1.15,2013-03-27 20:27:00,
2013-03-27 14:32:00,49.9,34.4,30.09,SE,136,3.0,6.0,55,0.00,,,0.00,Wunderground v.1.15,2013-03-27 20:32:00,
2013-03-27 14:37:00,50.4,33.4,30.09,South,181,5.0,10.0,52,0.00,,,0.00,Wunderground v.1.15,2013-03-27 20:37:00,
2013-03-27 14:42:00,50.6,30.6,30.09,SSW,198,5.0,9.0,46,0.00,,,0.00,Wunderground v.1.15,2013-03-27 20:42:00,
2013-03-27 14:47:00,50.4,31.9,30.09,WSW,239,2.0,10.0,49,0.00,,,0.00,Wunderground v.1.15,2013-03-27 20:47:00,
2013-03-27 14:52:00,50.9,30.8,30.09,SE,127,5.0,7.0,46,0.00,,,0.00,Wunderground v.1.15,2013-03-27 20:52:00,
2013-03-27 14:57:00,51.1,31.0,30.08,SSW,210,6.0,8.0,46,0.00,,,0.00,Wunderground v.1.15,2013-03-27 20:57:00,
2013-03-27 15:02:00,51.4,31.3,30.09,South,191,5.0,9.0,46,0.00,,,0.00,Wunderground v.1.15,2013-03-27 21:02:00,
2013-03-27 15:07:00,51.6,30.4,30.08,SE,134,4.0,9.0,44,0.00,,,0.00,Wunderground v.1.15,2013-03-27 21:07:00,
2013-03-27 15:12:00,51.5,31.4,30.08,SSE,165,3.0,8.0,46,0.00,,,0.00,Wunderground v.1.15,2013-03-27 21:12:00,
2013-03-27 15:17:00,51.8,32.2,30.08,East,87,5.0,9.0,47,0.00,,,0.00,Wunderground v.1.15,2013-03-27 21:17:00,
2013-03-27 15:22:00,51.8,31.7,30.08,SW,222,1.0,9.0,46,0.00,,,0.00,Wunderground v.1.15,2013-03-27 21:22:00,
2013-03-27 15:27:00,51.9,32.3,30.08,South,172,2.0,9.0,47,0.00,,,0.00,Wunderground v.1.15,2013-03-27 21:27:00,
2013-03-27 15:32:00,51.8,32.2,30.08,SSW,207,8.0,10.0,47,0.00,,,0.00,Wunderground v.1.15,2013-03-27 21:32:00,
2013-03-27 15:38:00,51.9,32.8,30.08,ESE,120,5.0,10.0,48,0.00,,,0.00,Wunderground v.1.15,2013-03-27 21:38:00,
2013-03-27 15:43:00,52.0,31.8,30.07,SE,135,4.0,13.0,46,0.00,,,0.00,Wunderground v.1.15,2013-03-27 21:43:00,
2013-03-27 15:48:00,51.6,32.5,30.07,ESE,113,3.0,13.0,48,0.00,,,0.00,Wunderground v.1.15,2013-03-27 21:48:00,
2013-03-27 15:53:00,51.4,32.9,30.08,South,190,4.0,10.0,49,0.00,,,0.00,Wunderground v.1.15,2013-03-27 21:53:00,
2013-03-27 15:58:00,51.5,32.4,30.08,SSE,151,7.0,10.0,48,0.00,,,0.00,Wunderground v.1.15,2013-03-27 21:58:00,
2013-03-27 16:03:00,51.6,32.5,30.08,SW,229,4.0,9.0,48,0.00,,,0.00,Wunderground v.1.15,2013-03-27 22:03:00,
2013-03-27 16:08:00,51.5,33.0,30.08,SSW,211,5.0,9.0,49,0.00,,,0.00,Wunderground v.1.15,2013-03-27 22:08:00,
2013-03-27 16:13:00,52.0,32.4,30.08,SSE,163,9.0,9.0,47,0.00,,,0.00,Wunderground v.1.15,2013-03-27 22:13:00,
2013-03-27 16:18:00,52.2,32.0,30.08,SW,214,6.0,12.0,46,0.00,,,0.00,Wunderground v.1.15,2013-03-27 22:18:00,
2013-03-27 16:23:00,52.2,29.8,30.08,ESE,108,3.0,6.0,42,0.00,,,0.00,Wunderground v.1.15,2013-03-27 22:23:00,
2013-03-27 16:28:00,52.8,33.1,30.07,SSW,200,5.0,8.0,47,0.00,,,0.00,Wunderground v.1.15,2013-03-27 22:28:00,
2013-03-27 16:33:00,52.6,31.3,30.07,SSW,199,5.0,11.0,44,0.00,,,0.00,Wunderground v.1.15,2013-03-27 22:33:00,
2013-03-27 16:38:00,52.5,32.3,30.07,SE,141,8.0,11.0,46,0.00,,,0.00,Wunderground v.1.15,2013-03-27 22:38:00,
2013-03-27 16:44:00,51.8,32.2,30.07,SE,131,2.0,10.0,47,0.00,,,0.00,Wunderground v.1.15,2013-03-27 22:44:00,
2013-03-27 16:48:00,51.9,32.8,30.07,South,172,6.0,10.0,48,0.00,,,0.00,Wunderground v.1.15,2013-03-27 22:48:00,
2013-03-27 16:54:00,52.2,33.6,30.07,SE,131,1.0,6.0,49,0.00,,,0.00,Wunderground v.1.15,2013-03-27 22:54:00,
2013-03-27 16:59:00,51.9,32.8,30.07,SE,129,6.0,12.0,48,0.00,,,0.00,Wunderground v.1.15,2013-03-27 22:59:00,
2013-03-27 17:04:00,51.7,33.1,30.07,East,93,6.0,9.0,49,0.00,,,0.00,Wunderground v.1.15,2013-03-27 23:04:00,
2013-03-27 17:09:00,51.8,33.7,30.07,SSE,163,3.0,9.0,50,0.00,,,0.00,Wunderground v.1.15,2013-03-27 23:09:00,
2013-03-27 17:14:00,51.8,34.2,30.08,South,188,7.0,7.0,51,0.00,,,0.00,Wunderground v.1.15,2013-03-27 23:14:00,
2013-03-27 17:20:00,51.3,34.7,30.07,SSE,151,2.0,4.0,53,0.00,,,0.00,Wunderground v.1.15,2013-03-27 23:20:00,
2013-03-27 17:25:00,51.2,34.2,30.07,SSE,161,3.0,6.0,52,0.00,,,0.00,Wunderground v.1.15,2013-03-27 23:25:00,
2013-03-27 17:30:00,50.7,33.2,30.07,SE,141,5.0,5.0,51,0.00,,,0.00,Wunderground v.1.15,2013-03-27 23:30:00,
2013-03-27 17:35:00,50.1,33.6,30.08,SE,127,3.0,9.0,53,0.00,,,0.00,Wunderground v.1.15,2013-03-27 23:35:00,
2013-03-27 17:40:00,49.7,33.2,30.08,SE,127,2.0,5.0,53,0.00,,,0.00,Wunderground v.1.15,2013-03-27 23:40:00,
2013-03-27 17:45:00,49.5,33.1,30.08,South,179,4.0,6.0,53,0.00,,,0.00,Wunderground v.1.15,2013-03-27 23:45:00,
2013-03-27 17:50:00,49.4,33.0,30.08,SSE,152,3.0,3.0,53,0.00,,,0.00,Wunderground v.1.15,2013-03-27 23:50:00,
2013-03-27 17:55:00,49.3,33.8,30.07,SE,142,2.0,5.0,55,0.00,,,0.00,Wunderground v.1.15,2013-03-27 23:55:00,
2013-03-27 18:00:00,49.6,34.5,30.08,SSW,199,5.0,6.0,56,0.00,,,0.00,Wunderground v.1.15,2013-03-28 00:00:00,
2013-03-27 18:05:00,49.5,33.5,30.08,South,169,3.0,6.0,54,0.00,,,0.00,Wunderground v.1.15,2013-03-28 00:05:00,
2013-03-27 18:10:00,49.2,33.3,30.08,SE,129,3.0,5.0,54,0.00,,,0.00,Wunderground v.1.15,2013-03-28 00:10:00,
2013-03-27 18:15:00,48.9,33.4,30.08,ESE,120,2.0,5.0,55,0.00,,,0.00,Wunderground v.1.15,2013-03-28 00:15:00,
2013-03-27 18:20:00,48.7,33.7,30.08,South,190,2.0,3.0,56,0.00,,,0.00,Wunderground v.1.15,2013-03-28 00:20:00,
2013-03-27 18:25:00,48.5,33.9,30.08,South,186,3.0,7.0,57,0.00,,,0.00,Wunderground v.1.15,2013-03-28 00:25:00,
2013-03-27 18:30:00,48.2,34.1,30.08,SE,133,2.0,5.0,58,0.00,,,0.00,Wunderground v.1.15,2013-03-28 00:30:00,
2013-03-27 18:36:00,47.9,34.7,30.08,SSE,150,2.0,5.0,60,0.00,,,0.00,Wunderground v.1.15,2013-03-28 00:36:00,
2013-03-27 18:41:00,47.6,34.8,30.08,SE,128,4.0,6.0,61,0.00,,,0.00,Wunderground v.1.15,2013-03-28 00:41:00,
2013-03-27 18:46:00,47.3,34.9,30.09,SSE,162,1.0,6.0,62,0.00,,,0.00,Wunderground v.1.15,2013-03-28 00:46:00,
2013-03-27 18:51:00,47.1,35.1,30.09,SSE,160,2.0,4.0,63,0.00,,,0.00,Wunderground v.1.15,2013-03-28 00:51:00,
2013-03-27 18:56:00,46.6,34.7,30.09,South,183,0.0,4.0,63,0.00,,,0.00,Wunderground v.1.15,2013-03-28 00:56:00,
2013-03-27 19:02:00,46.3,34.8,30.09,SW,224,1.0,2.0,64,0.00,,,0.00,Wunderground v.1.15,2013-03-28 01:02:00,
2013-03-27 19:07:00,46.0,34.9,30.09,SSW,211,2.0,2.0,65,0.00,,,0.00,Wunderground v.1.15,2013-03-28 01:07:00,
2013-03-27 19:12:00,45.6,34.9,30.09,SW,221,2.0,3.0,66,0.00,,,0.00,Wunderground v.1.15,2013-03-28 01:12:00,
2013-03-27 19:17:00,45.5,34.4,30.10,SW,230,2.0,6.0,65,0.00,,,0.00,Wunderground v.1.15,2013-03-28 01:17:00,
2013-03-27 19:22:00,45.3,34.2,30.10,WSW,246,3.0,6.0,65,0.00,,,0.00,Wunderground v.1.15,2013-03-28 01:22:00,
2013-03-27 19:27:00,44.5,34.2,30.10,West,273,2.0,6.0,67,0.00,,,0.00,Wunderground v.1.15,2013-03-28 01:27:00,
2013-03-27 19:32:00,43.6,34.1,30.10,West,277,2.0,3.0,69,0.00,,,0.00,Wunderground v.1.15,2013-03-28 01:32:00,
2013-03-27 19:37:00,43.0,33.9,30.10,WSW,256,3.0,4.0,70,0.00,,,0.00,Wunderground v.1.15,2013-03-28 01:37:00,
2013-03-27 19:42:00,42.5,33.8,30.10,WSW,257,3.0,4.0,71,0.00,,,0.00,Wunderground v.1.15,2013-03-28 01:42:00,
2013-03-27 19:48:00,42.5,34.1,30.10,WSW,241,3.0,4.0,72,0.00,,,0.00,Wunderground v.1.15,2013-03-28 01:48:00,
2013-03-27 19:53:00,42.4,33.7,30.10,South,186,1.0,3.0,71,0.00,,,0.00,Wunderground v.1.15,2013-03-28 01:53:00,
2013-03-27 19:58:00,41.3,33.0,30.11,WSW,253,1.0,3.0,72,0.00,,,0.00,Wunderground v.1.15,2013-03-28 01:58:00,
2013-03-27 20:04:00,40.7,32.7,30.11,SW,222,3.0,4.0,73,0.00,,,0.00,Wunderground v.1.15,2013-03-28 02:04:00,
2013-03-27 20:09:00,40.0,32.7,30.11,SW,226,4.0,4.0,75,0.00,,,0.00,Wunderground v.1.15,2013-03-28 02:09:00,
2013-03-27 20:16:00,39.9,32.6,30.11,West,259,3.0,6.0,75,0.00,,,0.00,Wunderground v.1.15,2013-03-28 02:16:00,
2013-03-27 20:21:00,40.6,33.0,30.11,West,262,3.0,4.0,74,0.00,,,0.00,Wunderground v.1.15,2013-03-28 02:21:00,
2013-03-27 20:26:00,40.9,32.9,30.11,WSW,248,1.0,4.0,73,0.00,,,0.00,Wunderground v.1.15,2013-03-28 02:26:00,
2013-03-27 20:31:00,41.4,33.4,30.11,SSW,203,2.0,2.0,73,0.00,,,0.00,Wunderground v.1.15,2013-03-28 02:31:00,
2013-03-27 20:37:00,41.3,33.3,30.11,SSE,167,2.0,4.0,73,0.00,,,0.00,Wunderground v.1.15,2013-03-28 02:37:00,
2013-03-27 20:42:00,41.3,33.3,30.11,WSW,246,2.0,3.0,73,0.00,,,0.00,Wunderground v.1.15,2013-03-28 02:42:00,
2013-03-27 20:47:00,41.5,33.1,30.12,SE,134,2.0,3.0,72,0.00,,,0.00,Wunderground v.1.15,2013-03-28 02:47:00,
2013-03-27 20:52:00,40.8,32.5,30.12,WNW,284,2.0,2.0,72,0.00,,,0.00,Wunderground v.1.15,2013-03-28 02:52:00,
2013-03-27 20:57:00,39.8,32.5,30.12,WSW,256,4.0,5.0,75,0.00,,,0.00,Wunderground v.1.15,2013-03-28 02:57:00,
2013-03-27 21:02:00,38.9,31.6,30.12,SW,233,3.0,4.0,75,0.00,,,0.00,Wunderground v.1.15,2013-03-28 03:02:00,
2013-03-27 21:07:00,38.3,31.7,30.12,SSW,212,1.0,4.0,77,0.00,,,0.00,Wunderground v.1.15,2013-03-28 03:07:00,
2013-03-27 21:12:00,38.2,31.9,30.12,WSW,253,5.0,5.0,78,0.00,,,0.00,Wunderground v.1.15,2013-03-28 03:12:00,
2013-03-27 21:17:00,37.4,31.2,30.12,WSW,257,3.0,6.0,78,0.00,,,0.00,Wunderground v.1.15,2013-03-28 03:17:00,
2013-03-27 21:22:00,37.4,32.1,30.13,WSW,238,2.0,4.0,81,0.00,,,0.00,Wunderground v.1.15,2013-03-28 03:22:00,
2013-03-27 21:28:00,37.3,31.7,30.13,WSW,256,3.0,4.0,80,0.00,,,0.00,Wunderground v.1.15,2013-03-28 03:28:00,
2013-03-27 21:34:00,36.8,31.5,30.13,WSW,256,2.0,5.0,81,0.00,,,0.00,Wunderground v.1.15,2013-03-28 03:34:00,
2013-03-27 21:39:00,36.8,31.5,30.13,SW,226,4.0,5.0,81,0.00,,,0.00,Wunderground v.1.15,2013-03-28 03:39:00,
2013-03-27 21:44:00,37.1,32.1,30.13,WSW,256,4.0,5.0,82,0.00,,,0.00,Wunderground v.1.15,2013-03-28 03:44:00,
2013-03-27 21:49:00,36.8,31.8,30.13,SW,224,3.0,5.0,82,0.00,,,0.00,Wunderground v.1.15,2013-03-28 03:49:00,
2013-03-27 21:54:00,36.6,31.9,30.13,WSW,256,5.0,6.0,83,0.00,,,0.00,Wunderground v.1.15,2013-03-28 03:54:00,
2013-03-27 21:59:00,36.6,32.2,30.13,South,172,3.0,6.0,84,0.00,,,0.00,Wunderground v.1.15,2013-03-28 03:59:00,
2013-03-27 22:00:00,36.7,32.3,30.13,SSE,162,3.0,3.0,84,0.00,,,0.00,Wunderground v.1.15,2013-03-28 04:00:00,
2013-03-27 22:05:00,36.8,32.7,30.13,SW,221,2.0,4.0,85,0.00,,,0.00,Wunderground v.1.15,2013-03-28 04:05:00,
2013-03-27 22:10:00,36.9,33.1,30.13,SSW,192,2.0,2.0,86,0.00,,,0.00,Wunderground v.1.15,2013-03-28 04:10:00,
2013-03-27 22:15:00,36.7,32.6,30.13,WSW,243,4.0,4.0,85,0.00,,,0.00,Wunderground v.1.15,2013-03-28 04:15:00,
2013-03-27 22:20:00,36.4,32.0,30.13,SW,214,1.0,2.0,84,0.00,,,0.00,Wunderground v.1.15,2013-03-28 04:20:00,
2013-03-27 22:25:00,36.2,32.1,30.13,SW,231,2.0,2.0,85,0.00,,,0.00,Wunderground v.1.15,2013-03-28 04:25:00,
2013-03-27 22:30:00,36.4,32.3,30.13,SSW,195,2.0,2.0,85,0.00,,,0.00,Wunderground v.1.15,2013-03-28 04:30:00,
2013-03-27 22:35:00,36.6,31.9,30.13,WSW,254,1.0,3.0,83,0.00,,,0.00,Wunderground v.1.15,2013-03-28 04:35:00,
2013-03-27 22:41:00,36.5,32.1,30.13,East,89,1.0,2.0,84,0.00,,,0.00,Wunderground v.1.15,2013-03-28 04:41:00,
2013-03-27 22:46:00,36.4,31.7,30.13,East,90,1.0,2.0,83,0.00,,,0.00,Wunderground v.1.15,2013-03-28 04:46:00,
2013-03-27 22:51:00,36.3,31.9,30.13,South,181,2.0,2.0,84,0.00,,,0.00,Wunderground v.1.15,2013-03-28 04:51:00,
2013-03-27 22:57:00,36.2,32.1,30.13,SW,226,2.0,2.0,85,0.00,,,0.00,Wunderground v.1.15,2013-03-28 04:57:00,
2013-03-27 23:02:00,36.6,32.5,30.13,WSW,248,4.0,5.0,85,0.00,,,0.00,Wunderground v.1.15,2013-03-28 05:02:00,
2013-03-27 23:07:00,37.1,33.0,30.13,NW,309,2.0,5.0,85,0.00,,,0.00,Wunderground v.1.15,2013-03-28 05:07:00,
2013-03-27 23:12:00,37.8,32.8,30.13,NE,41,2.0,3.0,82,0.00,,,0.00,Wunderground v.1.15,2013-03-28 05:12:00,
2013-03-27 23:17:00,38.6,33.3,30.13,WNW,297,6.0,7.0,81,0.00,,,0.00,Wunderground v.1.15,2013-03-28 05:17:00,
2013-03-27 23:22:00,39.4,33.1,30.12,NW,307,1.0,3.0,78,0.00,,,0.00,Wunderground v.1.15,2013-03-28 05:22:00,
2013-03-27 23:27:00,39.1,32.8,30.13,SSE,148,2.0,3.0,78,0.00,,,0.00,Wunderground v.1.15,2013-03-28 05:27:00,
2013-03-27 23:32:00,38.6,32.3,30.12,SE,124,0.0,2.0,78,0.00,,,0.00,Wunderground v.1.15,2013-03-28 05:32:00,
2013-03-27 23:37:00,38.0,32.1,30.13,SW,219,1.0,2.0,79,0.00,,,0.00,Wunderground v.1.15,2013-03-28 05:37:00,
2013-03-27 23:43:00,38.1,32.5,30.12,South,174,2.0,3.0,80,0.00,,,0.00,Wunderground v.1.15,2013-03-28 05:43:00,
2013-03-27 23:48:00,38.8,32.5,30.12,NW,307,5.0,8.0,78,0.00,,,0.00,Wunderground v.1.15,2013-03-28 05:48:00,
2013-03-27 23:53:00,39.9,32.6,30.12,WSW,246,2.0,7.0,75,0.00,,,0.00,Wunderground v.1.15,2013-03-28 05:53:00,
2013-03-27 23:58:00,40.0,32.4,30.12,NE,36,0.0,7.0,74,0.00,,,0.00,Wunderground v.1.15,2013-03-28 05:58:00,